Regional Weather Roundup
Issued by NWS

Home | Current Version | Previous Version | Text Only | Print | Product List | Glossary On
Versions: 1 2 3 4 5 6 7 8 9 10 11 12 13 14 15 16 17 18 19 20 21 22 23 24 25 26 27 28 29 30 31 32 33 34 35 36 37 38 39 40 41 42 43 44 45 46 47 48 49 50
000
ASUS43 KDMX 030907
RWRIA

WEATHER ROUNDUP FOR IOWA
NATIONAL WEATHER SERVICE DES MOINES IA
400 AM CDT SUN MAY 03 2015

NOTE: "FAIR" INDICATES FEW OR NO CLOUDS BELOW 12,000 FEET WITH NO
SIGNIFICANT WEATHER AND/OR OBSTRUCTIONS TO VISIBILITY.

* - THESE STATIONS ARE NOT NWS STATIONS...THUS NOT UNDER NWS
QUALITY CONTROL.  THEY ALSO DO NOT REPORT WEATHER SUCH
AS PRECIPITATION OR FOG.

IAZ001>003-012>014-020>022-031>034-043>046-031000-
   NORTHWEST IOWA

CITY           SKY/WX    TMP DP  RH WIND       PRES   REMARKS
CARROLL *      PTCLDY    66  50  55 S18G29    29.71R
CHEROKEE *     CLOUDY    54  52  94 CALM      29.73S
DENISON *      CLEAR     66  48  52 S17G26    29.70S
LE MARS *      CLEAR     61  54  77 SE7       29.71F
ORANGE CITY *  CLEAR     55  52  88 S3        29.71F
SHELDON *      CLEAR     55  55 100 SE6       29.70F
SIOUX CITY     CLOUDY    60  51  72 E9        29.70F
SPENCER        CLOUDY    54  51  90 SE6       29.73F
STORM LAKE *   CLEAR     55  52  88 S5        29.74F
$$

IAZ055>058-069>071-079>083-090>094-031000-
   SOUTHWEST IOWA

CITY           SKY/WX    TMP DP  RH WIND       PRES   REMARKS
ATLANTIC *     LGT RAIN  59  59 100 CALM      29.80F
AUDUBON *      LGT RAIN  59  55  88 S18G25    29.76F
CLARINDA *     CLOUDY    63  57  82 SE7       29.86F
COUNCIL BLFS * CLOUDY    59  59 100 SE5G13    29.81F
CRESTON *      RAIN      61  61 100 W8G15     29.85F
HARLAN  *      CLOUDY    61  61 100 S12G18    29.79F
LAMONI         CLOUDY    58  53  84 W3        29.88R
RED OAK *      CLOUDY    61  61 100 S6        29.85R
SHENANDOAH *   MOCLDY    63  59  88 NE3       29.85R
$$

IAZ047>049-059>061-072>074-084-031000-
   CENTRAL IOWA

CITY           SKY/WX    TMP DP  RH WIND       PRES   REMARKS
AMES           CLOUDY    56  50  80 SE15      29.79F
ANKENY *       CLEAR     59  52  77 S8        29.81F
CHARITON *     MOCLDY    59  52  77 S7        29.86S
DES MOINES     CLOUDY    61  53  75 S16       29.81F
GRINNELL*      CLOUDY    55  50  82 E6        29.88R
KNOXVILLE *    PTCLDY    61  50  67 SW12      29.84S
MARSHALLTOWN   TSTM      56  53  90 S17       29.83F
PELLA *        CLOUDY    57  54  88 SE3       29.87R
PERRY *          N/A     66  54  63 SW35G46   29.71F
$$

IAZ004>006-015-016-023>025-035-036-031000-
   NORTH CENTRAL IOWA

CITY           SKY/WX    TMP DP  RH WIND       PRES   REMARKS
ALGONA *       CLEAR     57  54  88 SE13      29.76S
CLARION *      PTCLDY    59  52  77 S16       29.78S
ESTHERVILLE    CLOUDY    54  51  90 SE10      29.74S
FORT DODGE *   CLOUDY    57  52  82 SE6       29.77S
MASON CITY     CLOUDY    55  50  83 S10       29.81F
FOREST CITY *  CLEAR     52  50  93 SE9       29.78F
IOWA FALLS *     N/A     59  54  82 S14       29.81F
$$

IAZ007>011-017>019-026>030-037>042-050>054-066-031000-
   NORTHEAST IOWA

CITY           SKY/WX    TMP DP  RH WIND       PRES   REMARKS
CEDAR RAPIDS     N/A    N/A N/A N/A MISG        N/A
CHARLES CITY * CLEAR     57  50  77 S17       29.82F
CLINTON *        N/A     59  46  63 S9        29.95S
DECORAH *      MOCLDY    59  50  72 S10       29.84F
DUBUQUE        LGT RAIN  58  51  78 S21       29.91S
MONTICELLO *   PTCLDY    57  52  82 SE10      29.90F
OELWEIN *      MOCLDY    57  50  77 S15       29.86F
WATERLOO       CLOUDY    59  49  69 S15       29.83F
$$

IAZ064-065-067-068-078-031000-
   EAST CENTRAL IOWA

CITY           SKY/WX    TMP DP  RH WIND       PRES   REMARKS
DAVENPORT      PTCLDY    60  45  57 S10       29.92F
IOWA CITY      CLOUDY    58  52  80 S10       29.91F
MT. PLEASANT * CLOUDY    54  48  82 SE6       29.91F
MUSCATINE *    LGT RAIN  57  52  82 S13       29.95R
QUAD CITIES    MOCLDY    63  45  51 S10       29.92S
$$

IAZ062-063-075>077-085>089-095>099-031000-
   SOUTHEAST IOWA

CITY           SKY/WX    TMP DP  RH WIND       PRES   REMARKS
BURLINGTON     MOCLDY    61  48  62 S9        29.92S
FAIRFIELD *    PTCLDY    54  50  87 SE6       29.89F
FORT MADISON * CLEAR     59  48  67 S9        29.92F
KEOKUK *       CLEAR     61  48  63 S8        29.91F
OSKALOOSA *      N/A     54  50  87 SE9       29.87F
CENTERVILLE *  CLEAR     57  52  82 S9        29.88F
OTTUMWA        CLOUDY    56  51  84 SE10      29.87F
WASHINGTON *   PTCLDY    57  57 100 E8        29.91F
$$

ABBREVIATIONS USED IN REMARKS
   TC - TEMPERATURES IN CELSIUS
  WCI - WIND CHILL INDEX
   HX - HEAT INDEX
  VSB - VISIBILITY
$$




USA.gov is the U.S. government's official web portal to all federal, state and local government web resources and services.